STARLINK-1885 (47168 NORAD) Tracking and Keplerian Element Data
This shows tracking and keplerian element data for the satellite.
Feedback or suggestion? Click here.
Element | Value |
Catalog | 47168 |
Name | STARLINK-1885 |
Epoch Orbit | 182 |
Epoch Day | 20.91667824 |
Epoch Year | 2021 |
RAAN | 75.0404 |
Inclination | 53.0557 |
Eccentricity | 0.0001207 |
Argument of Perigee | 69.7919 |
Mean Anonmoly | 336.3768 |
Mean Motion | 15.40228209 |
Decay Rate | -0.01084475 |
L1 | 1 47168U 20088AY 21020.91667824 -.01084475 00000-0 -28956-1 0 9994 |
L2 | 2 47168 53.0557 75.0404 0001207 69.7919 336.3768 15.40228209 1824 |
Live tracking and technical data element details for STARLINK-1885 (NORAD 47168). STARLINK-1885 can be tracked NOW for your location showing map with azimuth and elevation plus other details from your city location.
Track the satellite on the map from your city or location and see movement details for azimuth, elevation, latitude, longitude, range, height, and movement on the map or in text.
IsCatalogInMostPopularTable: catalog: 47168, numindb: 22
Update: records affected: 1
GetName: 47168 STARLINK-1885
Hit Count: updated at: Sat, 23 Jan 2021 17:46:11 GMT